Mojave, CA

4:23 AM PST on December 07, 2019 (GMT -0800)
Mojave

Weather History for KMHV - May, 2019

Change the Weather History Date:

Tuesday, May 7, 2019

  Actual Average Record
Temperature  
Mean Temperature 67 °F -  
Max Temperature 77 °F 77 °F 96 °F (2001)
Min Temperature 57 °F 51 °F 35 °F (1977)
Cooling Degree Days 2    
Growing Degree Days 17 (Base 50)    
Moisture  
Dew Point 42 °F    
Average Humidity 44    
Maximum Humidity 59    
Minimum Humidity 27    
Precipitation  
Precipitation 0.00 in - - ()
Sea Level Pressure  
Sea Level Pressure 29.92 in    
Wind  
Wind Speed 20 mph (WNW)    
Max Wind Speed 46 mph    
Max Gust Speed 60 mph    
Visibility 10 miles    
Events      
Averages and records for this station are not official NWS values.
T = Trace of Precipitation, MM = Missing Value Source: NWS Daily Summary

Daily Weather History Graph

Daily Weather History Graph

Search for Another Location

Airport or City:

Astronomy

May. 07, 2019 Rise Set
Actual Time 5:55 AM PDT 7:42 PM PDT
Civil Twilight 5:28 AM PDT 8:10 PM PDT
Nautical Twilight 4:55 AM PDT 8:43 PM PDT
Astronomical Twilight 4:19 AM PDT 9:19 PM PDT
Moon 8:08 AM PDT 10:45 PM PDT
Length of Visible Light 14h 42m
Length of Day
13h 47m
Waxing Crescent, 9% of the Moon is Illuminated
May 7
Waxing Crescent
May 11
First Quarter
May 18
Full
May 26
Last Quarter
Jun 3
New

Hourly Weather History & Observations

Time (PDT) Temp. Dew Point Humidity Pressure Visibility Wind Dir Wind Speed Gust Speed Precip Events Conditions
12:00 AM 59.0 °F 41.0 °F 51% 29.90 in 10.0 mi WNW 20.7 mph 32.2 mph N/A   Scattered Clouds
12:20 AM 59.0 °F 41.0 °F 51% 29.89 in 10.0 mi WNW 21.9 mph - N/A   Scattered Clouds
12:40 AM 59.0 °F 41.0 °F 51% 29.90 in 10.0 mi WNW 16.1 mph 25.3 mph N/A   Scattered Clouds
1:00 AM 57.2 °F 41.0 °F 55% 29.90 in 10.0 mi WNW 19.6 mph 28.8 mph N/A   Partly Cloudy
1:20 AM 57.2 °F 39.2 °F 51% 29.90 in 10.0 mi WNW 18.4 mph 27.6 mph N/A   Partly Cloudy
1:40 AM 57.2 °F 39.2 °F 51% 29.89 in 10.0 mi WNW 23.0 mph - N/A   Partly Cloudy
2:00 AM 57.2 °F 41.0 °F 55% 29.89 in 10.0 mi WNW 21.9 mph 29.9 mph N/A   Clear
2:20 AM 57.2 °F 41.0 °F 55% 29.89 in 10.0 mi WNW 24.2 mph 29.9 mph N/A   Partly Cloudy
2:40 AM 57.2 °F 41.0 °F 55% 29.90 in 10.0 mi WNW 25.3 mph - N/A   Partly Cloudy
3:00 AM 57.2 °F 42.8 °F 59% 29.90 in 10.0 mi WNW 23.0 mph 31.1 mph N/A   Clear
3:20 AM 57.2 °F 42.8 °F 59% 29.90 in 10.0 mi NW 20.7 mph - N/A   Clear
3:40 AM 57.2 °F 41.0 °F 55% 29.90 in 10.0 mi WNW 20.7 mph 28.8 mph N/A   Clear
4:00 AM 57.2 °F 42.8 °F 59% 29.90 in 10.0 mi NW 24.2 mph 31.1 mph N/A   Clear
4:20 AM 57.2 °F 41.0 °F 55% 29.90 in 10.0 mi NW 19.6 mph 27.6 mph N/A   Clear
4:40 AM 57.2 °F 42.8 °F 59% 29.91 in 10.0 mi NW 19.6 mph - N/A   Partly Cloudy
5:00 AM 57.2 °F 42.8 °F 59% 29.92 in 10.0 mi NW 18.4 mph 24.2 mph N/A   Partly Cloudy
5:20 AM 57.2 °F 42.8 °F 59% 29.93 in 10.0 mi NW 13.8 mph 21.9 mph N/A   Clear
5:40 AM 57.2 °F 42.8 °F 59% 29.93 in 10.0 mi NW 15.0 mph 21.9 mph N/A   Clear
6:00 AM 57.2 °F 42.8 °F 59% 29.93 in 10.0 mi NNW 12.7 mph 20.7 mph N/A   Clear
6:20 AM 57.2 °F 42.8 °F 59% 29.94 in 10.0 mi NW 15.0 mph 20.7 mph N/A   Clear
6:40 AM 57.2 °F 42.8 °F 59% 29.94 in 10.0 mi NW 12.7 mph - N/A   Clear
7:00 AM 59.0 °F 42.8 °F 55% 29.95 in 10.0 mi WNW 18.4 mph - N/A   Clear
7:20 AM 60.8 °F 42.8 °F 52% 29.96 in 10.0 mi NW 13.8 mph - N/A   Clear
7:40 AM 62.6 °F 42.8 °F 48% 29.96 in 10.0 mi NW 13.8 mph - N/A   Clear
8:00 AM 62.6 °F 41.0 °F 45% 29.97 in 10.0 mi NNW 9.2 mph 16.1 mph N/A   Clear
8:20 AM 64.4 °F 41.0 °F 42% 29.97 in 10.0 mi Calm Calm - N/A   Clear
8:40 AM 64.4 °F 41.0 °F 42% 29.97 in 10.0 mi Calm Calm - N/A   Clear
9:00 AM 66.2 °F 41.0 °F 40% 29.97 in 10.0 mi Variable 3.5 mph - N/A   Clear
9:20 AM 66.2 °F 41.0 °F 40% 29.96 in 10.0 mi Calm Calm - N/A   Clear
9:40 AM 68.0 °F 41.0 °F 37% 29.97 in 10.0 mi Calm Calm - N/A   Clear
10:00 AM 69.8 °F 41.0 °F 35% 29.97 in 10.0 mi Variable 5.8 mph 11.5 mph N/A   Clear
10:20 AM 71.6 °F 41.0 °F 33% 29.97 in 10.0 mi WNW 9.2 mph - N/A   Clear
10:40 AM 71.6 °F 41.0 °F 33% 29.97 in 10.0 mi Variable 3.5 mph 16.1 mph N/A   Clear
11:00 AM 71.6 °F 41.0 °F 33% 29.97 in 10.0 mi Variable 3.5 mph - N/A   Clear
11:20 AM 73.4 °F 41.0 °F 31% 29.97 in 10.0 mi Variable 5.8 mph - N/A   Clear
11:40 AM 75.2 °F 42.8 °F 31% 29.96 in 10.0 mi WSW 19.6 mph - N/A   Clear
12:00 PM 75.2 °F 42.8 °F 31% 29.96 in 10.0 mi West 18.4 mph 29.9 mph N/A   Clear
12:20 PM 75.2 °F 42.8 °F 31% 29.95 in 10.0 mi West 21.9 mph 28.8 mph N/A   Clear
12:40 PM 75.2 °F 42.8 °F 31% 29.95 in 10.0 mi West 21.9 mph - N/A   Clear
1:00 PM 77.0 °F 42.8 °F 29% 29.94 in 10.0 mi WNW 24.2 mph - N/A   Clear
1:20 PM 75.2 °F 42.8 °F 31% 29.94 in 10.0 mi WNW 26.5 mph - N/A   Clear
1:40 PM 77.0 °F 42.8 °F 29% 29.93 in 10.0 mi WNW 23.0 mph - N/A   Clear
2:00 PM 75.2 °F 42.8 °F 31% 29.94 in 10.0 mi West 24.2 mph - N/A   Clear
2:20 PM 75.2 °F 42.8 °F 31% 29.94 in 10.0 mi WSW 26.5 mph - N/A   Clear
2:40 PM 75.2 °F 42.8 °F 31% 29.93 in 10.0 mi WSW 24.2 mph 32.2 mph N/A   Clear
3:00 PM 75.2 °F 42.8 °F 31% 29.92 in 10.0 mi West 17.3 mph 25.3 mph N/A   Clear
3:20 PM 77.0 °F 41.0 °F 28% 29.91 in 10.0 mi WNW 27.6 mph 34.5 mph N/A   Clear
3:40 PM 75.2 °F 41.0 °F 29% 29.91 in 10.0 mi NW 27.6 mph 35.7 mph N/A   Clear
4:00 PM 75.2 °F 41.0 °F 29% 29.88 in 10.0 mi WNW 33.4 mph 41.4 mph N/A   Clear
4:20 PM 75.2 °F 41.0 °F 29% 29.89 in 10.0 mi NW 29.9 mph 44.9 mph N/A   Clear
4:40 PM 75.2 °F 39.2 °F 27% 29.87 in 10.0 mi WNW 35.7 mph 47.2 mph N/A   Clear
5:00 PM 73.4 °F 39.2 °F 29% 29.89 in 10.0 mi WNW 35.7 mph 44.9 mph N/A   Clear
5:20 PM 73.4 °F 39.2 °F 29% 29.91 in 10.0 mi West 24.2 mph 35.7 mph N/A   Clear
5:40 PM 71.6 °F 39.2 °F 31% 29.90 in 10.0 mi North 10.4 mph 26.5 mph N/A   Clear
6:00 PM 69.8 °F 41.0 °F 35% 29.92 in 10.0 mi East 10.4 mph 18.4 mph N/A   Clear
6:20 PM 69.8 °F 42.8 °F 38% 29.93 in 10.0 mi ESE 9.2 mph 23.0 mph N/A   Clear
6:40 PM 68.0 °F 42.8 °F 40% 29.94 in 10.0 mi SSW 9.2 mph 27.6 mph N/A   Clear
7:00 PM 68.0 °F 44.6 °F 43% 29.94 in 10.0 mi SSW 13.8 mph - N/A   Clear
7:20 PM 66.2 °F 44.6 °F 46% 29.93 in 10.0 mi SSW 20.7 mph 27.6 mph N/A   Clear
7:40 PM 66.2 °F 44.6 °F 46% 29.93 in 10.0 mi South 19.6 mph - N/A   Clear
8:00 PM 64.4 °F 42.8 °F 45% 29.93 in 10.0 mi South 19.6 mph 28.8 mph N/A   Clear
8:20 PM 64.4 °F 44.6 °F 49% 29.94 in 10.0 mi SW 11.5 mph 25.3 mph N/A   Clear
8:40 PM 64.4 °F 42.8 °F 45% 29.91 in 10.0 mi WNW 28.8 mph 47.2 mph N/A   Clear
9:00 PM 64.4 °F 42.8 °F 45% 29.87 in 10.0 mi WNW 43.7 mph 52.9 mph N/A   Clear
9:20 PM 64.4 °F 42.8 °F 45% 29.88 in 10.0 mi WNW 42.6 mph 54.1 mph N/A   Clear
9:40 PM 64.4 °F 44.6 °F 49% 29.89 in 10.0 mi WNW 41.4 mph 57.5 mph N/A   Clear
10:00 PM 62.6 °F 44.6 °F 52% 29.87 in 10.0 mi WNW 46.0 mph 57.5 mph N/A   Partly Cloudy
10:20 PM 62.6 °F 44.6 °F 52% 29.88 in 10.0 mi NW 42.6 mph 58.7 mph N/A   Partly Cloudy
10:40 PM 62.6 °F 44.6 °F 52% 29.87 in 10.0 mi WNW 43.7 mph 59.8 mph N/A   Partly Cloudy
11:00 PM 62.6 °F 44.6 °F 52% 29.87 in 10.0 mi WNW 42.6 mph 58.7 mph N/A   Clear
11:20 PM 62.6 °F 44.6 °F 52% 29.88 in 10.0 mi NW 41.4 mph 52.9 mph N/A   Clear
11:40 PM 62.6 °F 44.6 °F 52% 29.88 in 10.0 mi WNW 43.7 mph 52.9 mph N/A   Clear